DW0499 Weather Reports


time (UTC)temp
C
wind
direction
speed
KPH
gust
KPH
rain 1hr
cm
rain 24hr
cm
rain mn
cm
humidity
%
barometer
mb
20260503054559 12 360 1.6 6.4 0.00 0.00 0.00 48 1018.0
20260503053055 11 0 0.0 8.0 0.00 0.00 0.00 43 1017.9
20260503051600 11 0 0.0 0.0 0.00 0.00 0.00 41 1017.9
20260503050059 11 360 4.8 9.7 0.00 0.00 0.00 46 1017.8
20260503044603 10 360 6.4 12.9 0.00 0.00 0.00 45 1018.0
20260503043057 10 360 8.0 12.9 0.00 0.00 0.00 39 1018.0
20260503041607 10 360 0.0 9.7 0.00 0.00 0.00 43 1018.0
20260503040100 11 360 8.0 12.9 0.00 0.00 0.00 46 1017.9
20260503034608 10 360 3.2 12.9 0.00 0.00 0.00 37 1017.9
20260503033100 9 360 8.0 12.9 0.00 0.00 0.00 40 1017.9
20260503031558 10 360 3.2 4.8 0.00 0.00 0.00 50 1018.1
20260503030058 10 0 0.0 4.8 0.00 0.00 0.00 50 1018.0
20260503024600 10 0 1.6 4.8 0.00 0.00 0.00 49 1018.1
20260503023056 10 360 1.6 4.8 0.00 0.00 0.00 52 1018.0
20260503021557 11 0 0.0 8.0 0.00 0.00 0.00 55 1018.2
20260503020056 11 360 3.2 8.0 0.00 0.00 0.00 57 1018.1
20260503014619 12 360 0.0 6.4 0.00 0.00 0.00 59 1018.1
20260503013057 12 0 0.0 6.4 0.00 0.00 0.00 59 1018.1
20260503011558 12 0 3.2 8.0 0.00 0.00 0.00 59 1018.3
20260503010058 12 360 6.4 14.5 0.00 0.00 0.00 59 1018.5
20260503004601 12 360 3.2 9.7 0.00 0.00 0.00 59 1018.3
20260503003058 12 360 3.2 9.7 0.00 0.00 0.00 59 1018.5
20260503001600 12 360 9.7 16.1 0.00 0.00 0.00 59 1018.8
20260503000058 12 360 4.8 16.1 0.00 0.00 0.00 59 1018.9
20260502234557 12 360 8.0 14.5 0.00 0.00 0.00 59 1019.1
20260502233102 13 360 9.7 17.7 0.00 0.00 0.00 59 1019.2
20260502231606 13 360 4.8 8.0 0.00 0.00 0.00 59 1019.5
20260502230058 13 360 6.4 14.5 0.00 0.00 0.00 59 1019.5
20260502224557 13 360 6.4 9.7 0.00 0.00 0.00 59 1019.6
20260502223054 13 360 6.4 12.9 0.00 0.00 0.00 59 1019.7
20260502221600 13 360 11.3 16.1 0.00 0.00 0.00 59 1019.7
20260502220104 13 360 11.3 14.5 0.00 0.00 0.00 59 1019.6
20260502214555 13 360 6.4 9.7 0.00 0.00 0.00 59 1019.7
20260502213057 14 0 0.0 6.4 0.00 0.00 0.00 59 1019.7
20260502211557 14 0 0.0 4.8 0.00 0.00 0.00 60 1019.9
20260502210106 15 0 0.0 1.6 0.00 0.00 0.00 59 1019.7
20260502204600 15 0 0.0 6.4 0.00 0.00 0.00 59 1019.8
20260502203058 14 0 0.0 1.6 0.00 0.00 0.00 60 1019.8
20260502201604 15 0 0.0 4.8 0.00 0.00 0.00 59 1019.8
20260502200105 15 360 3.2 6.4 0.00 0.00 0.00 58 1019.6
20260502194618 15 0 0.0 0.0 0.00 0.00 0.00 55 1019.5
20260502193104 15 0 0.0 8.0 0.00 0.00 0.00 55 1019.4
20260502191600 14 360 8.0 12.9 0.00 0.00 0.00 58 1019.2
20260502190109 15 360 8.0 12.9 0.00 0.00 0.00 55 1019.1
20260502184600 16 360 9.7 14.5 0.00 0.00 0.00 51 1019.1
20260502183056 16 360 4.8 12.9 0.00 0.00 0.00 51 1019.0
20260502181601 17 360 0.0 3.2 0.00 0.00 0.00 51 1019.1
20260502180122 17 360 0.0 6.4 0.00 0.00 0.00 50 1018.9
20260502163059 20 360 6.4 17.7 0.00 0.00 0.00 53 1019.3
20260502161601 20 360 6.4 17.7 0.00 0.00 0.00 53 1019.6
20260502151609 21 360 3.2 14.5 0.00 0.00 0.00 52 1019.9
20260502130113 21 0 0.0 8.0 0.00 0.00 0.00 55 1021.3
20260502123105 21 360 6.4 14.5 0.00 0.00 0.00 56 1021.5
20260502121606 21 360 1.6 8.0 0.00 0.00 0.00 55 1021.7
20260502114557 21 360 8.0 29.0 0.00 0.00 0.00 55 1022.0
20260502113057 20 360 6.4 16.1 0.00 0.00 0.00 56 1022.3
20260502111602 21 360 4.8 14.5 0.00 0.00 0.00 55 1022.4
20260502110100 21 360 4.8 14.5 0.00 0.00 0.00 55 1022.7
20260502104559 20 360 6.4 14.5 0.00 0.00 0.00 56 1022.7
20260502103105 19 360 4.8 16.1 0.00 0.00 0.00 56 1022.8
20260502101620 18 360 6.4 14.5 0.00 0.00 0.00 56 1023.1
20260502100116 18 360 6.4 12.9 0.00 0.00 0.00 56 1023.2
20260502090105 17 360 1.6 8.0 0.00 0.00 0.00 56 1023.8
20260502080108 15 360 1.6 6.4 0.00 0.00 0.00 56 1024.1
20260502070108 13 360 0.0 4.8 0.00 0.00 0.00 49 1024.7
20260502064602 12 360 1.6 6.4 0.00 0.00 0.00 50 1024.6
20260502063105 12 360 4.8 9.7 0.00 0.00 0.00 54 1024.8
20260502061558 12 360 6.4 12.9 0.00 0.00 0.00 51 1024.6
20260502060111 11 360 1.6 6.4 0.00 0.00 0.00 48 1024.4